Time,TemperatureF,DewpointF,PressureIn,WindDirection,WindDirectionDegrees,WindSpeedMPH,WindSpeedGustMPH,Humidity,HourlyPrecipIn,Conditions,Clouds,dailyrainin,SolarRadiationWatts/m^2,SoftwareType,DateUTC
2013-05-08 00:02:00,55.0,53.0,30.20,SW,217,4.0,8.0,92,0.00,,,0.00,0.000000,,2013-05-08 04:02:00,
2013-05-08 00:13:00,55.0,53.0,30.20,SW,217,4.0,8.0,92,0.00,,,0.00,0.000000,,2013-05-08 04:13:00,
2013-05-08 00:43:00,52.0,51.0,30.20,WSW,240,1.0,7.0,95,0.00,,,0.00,0.000000,,2013-05-08 04:43:00,
2013-05-08 00:53:00,52.0,51.0,30.20,WSW,240,1.0,7.0,95,0.00,,,0.00,0.000000,,2013-05-08 04:53:00,
2013-05-08 01:02:00,52.0,51.0,30.20,WSW,240,1.0,7.0,95,0.00,,,0.00,0.000000,,2013-05-08 05:02:00,
2013-05-08 01:12:00,52.0,51.0,30.20,WSW,240,1.0,7.0,95,0.00,,,0.00,0.000000,,2013-05-08 05:12:00,
2013-05-08 01:32:00,55.0,54.0,30.21,South,171,4.0,9.0,96,0.00,,,0.00,0.000000,,2013-05-08 05:32:00,
2013-05-08 01:42:00,55.0,54.0,30.21,South,171,4.0,9.0,96,0.00,,,0.00,0.000000,,2013-05-08 05:42:00,
2013-05-08 01:52:00,55.0,54.0,30.21,South,171,4.0,9.0,96,0.00,,,0.00,0.000000,,2013-05-08 05:52:00,
2013-05-08 02:02:00,55.0,54.0,30.21,South,171,4.0,9.0,96,0.00,,,0.00,0.000000,,2013-05-08 06:02:00,
2013-05-08 02:12:00,55.0,54.0,30.21,South,171,4.0,9.0,96,0.00,,,0.00,0.000000,,2013-05-08 06:12:00,
2013-05-08 02:42:00,56.0,55.0,30.19,South,170,3.0,8.0,97,0.00,,,0.00,0.000000,,2013-05-08 06:42:00,
2013-05-08 02:52:00,56.0,55.0,30.19,South,170,3.0,8.0,97,0.00,,,0.00,0.000000,,2013-05-08 06:52:00,
2013-05-08 03:02:00,56.0,55.0,30.19,South,170,3.0,8.0,97,0.00,,,0.00,0.000000,,2013-05-08 07:02:00,
2013-05-08 03:11:00,56.0,55.0,30.19,South,170,3.0,8.0,97,0.00,,,0.00,0.000000,,2013-05-08 07:11:00,
2013-05-08 03:42:00,56.0,55.0,30.19,SW,223,3.0,7.0,98,0.00,,,0.00,0.000000,,2013-05-08 07:42:00,
2013-05-08 03:52:00,56.0,55.0,30.19,SW,223,3.0,7.0,98,0.00,,,0.00,0.000000,,2013-05-08 07:52:00,
2013-05-08 04:02:00,56.0,55.0,30.19,SW,223,3.0,7.0,98,0.00,,,0.00,0.000000,,2013-05-08 08:02:00,
2013-05-08 04:12:00,56.0,55.0,30.19,SW,223,3.0,7.0,98,0.00,,,0.00,0.000000,,2013-05-08 08:12:00,
2013-05-08 04:32:00,51.0,50.0,30.19,West,263,1.0,6.0,98,0.00,,,0.00,0.000000,,2013-05-08 08:32:00,
2013-05-08 04:43:00,51.0,50.0,30.19,West,263,1.0,6.0,98,0.00,,,0.00,0.000000,,2013-05-08 08:43:00,
2013-05-08 04:52:00,51.0,50.0,30.19,West,263,1.0,6.0,98,0.00,,,0.00,0.000000,,2013-05-08 08:52:00,
2013-05-08 05:02:00,51.0,50.0,30.19,West,263,1.0,6.0,98,0.00,,,0.00,0.000000,,2013-05-08 09:02:00,
2013-05-08 05:11:00,51.0,50.0,30.19,West,263,1.0,6.0,98,0.00,,,0.00,0.000000,,2013-05-08 09:11:00,
2013-05-08 05:42:00,50.0,50.0,30.20,SW,216,2.0,5.0,99,0.00,,,0.00,0.000000,,2013-05-08 09:42:00,
2013-05-08 05:53:00,50.0,50.0,30.20,SW,216,2.0,5.0,99,0.00,,,0.00,0.000000,,2013-05-08 09:53:00,
2013-05-08 06:02:00,50.0,50.0,30.20,SW,216,2.0,5.0,99,0.00,,,0.00,0.000000,,2013-05-08 10:02:00,
2013-05-08 06:12:00,50.0,50.0,30.20,SW,216,2.0,5.0,99,0.00,,,0.00,0.000000,,2013-05-08 10:12:00,
2013-05-08 06:33:00,48.0,48.0,30.21,SE,136,1.0,4.0,99,0.00,,,0.00,0.000000,,2013-05-08 10:33:00,
2013-05-08 06:42:00,48.0,48.0,30.21,SE,136,1.0,4.0,99,0.00,,,0.00,0.000000,,2013-05-08 10:42:00,
2013-05-08 06:53:00,48.0,48.0,30.21,SE,136,1.0,4.0,99,0.00,,,0.00,0.000000,,2013-05-08 10:53:00,
2013-05-08 07:02:00,48.0,48.0,30.21,SE,136,1.0,4.0,99,0.00,,,0.00,0.000000,,2013-05-08 11:02:00,
2013-05-08 07:11:00,48.0,48.0,30.21,SE,136,1.0,4.0,99,0.00,,,0.00,0.000000,,2013-05-08 11:11:00,
2013-05-08 07:42:00,56.0,56.0,30.22,ESE,111,1.0,3.0,100,0.00,,,0.00,37.000000,,2013-05-08 11:42:00,
2013-05-08 07:52:00,56.0,56.0,30.22,ESE,111,1.0,3.0,100,0.00,,,0.00,37.000000,,2013-05-08 11:52:00,
2013-05-08 08:02:00,56.0,56.0,30.22,ESE,111,1.0,3.0,100,0.00,,,0.00,37.000000,,2013-05-08 12:02:00,
2013-05-08 08:11:00,56.0,56.0,30.22,ESE,111,1.0,3.0,100,0.00,,,0.00,37.000000,,2013-05-08 12:11:00,
2013-05-08 08:42:00,63.0,60.0,30.25,West,260,3.0,8.0,90,0.00,,,0.00,228.000000,,2013-05-08 12:42:00,
2013-05-08 08:52:00,63.0,60.0,30.25,West,260,3.0,8.0,90,0.00,,,0.00,228.000000,,2013-05-08 12:52:00,
2013-05-08 09:01:00,63.0,60.0,30.25,West,260,3.0,8.0,90,0.00,,,0.00,228.000000,,2013-05-08 13:01:00,
2013-05-08 09:12:00,63.0,60.0,30.25,West,260,3.0,8.0,90,0.00,,,0.00,228.000000,,2013-05-08 13:12:00,
2013-05-08 09:42:00,68.0,57.0,30.26,WSW,238,3.0,7.0,68,0.00,,,0.00,459.000000,,2013-05-08 13:42:00,
2013-05-08 09:52:00,68.0,57.0,30.26,WSW,238,3.0,7.0,68,0.00,,,0.00,459.000000,,2013-05-08 13:52:00,
2013-05-08 10:02:00,68.0,57.0,30.26,WSW,238,3.0,7.0,68,0.00,,,0.00,459.000000,,2013-05-08 14:02:00,
2013-05-08 10:11:00,68.0,57.0,30.26,WSW,238,3.0,7.0,68,0.00,,,0.00,459.000000,,2013-05-08 14:11:00,
2013-05-08 10:42:00,72.0,54.0,30.27,West,259,8.0,15.0,53,0.00,,,0.00,680.000000,,2013-05-08 14:42:00,
2013-05-08 10:52:00,72.0,54.0,30.27,West,259,8.0,15.0,53,0.00,,,0.00,680.000000,,2013-05-08 14:52:00,
2013-05-08 11:02:00,72.0,54.0,30.27,West,259,8.0,15.0,53,0.00,,,0.00,680.000000,,2013-05-08 15:02:00,
2013-05-08 11:11:00,72.0,54.0,30.27,West,259,8.0,15.0,53,0.00,,,0.00,680.000000,,2013-05-08 15:11:00,
2013-05-08 11:42:00,75.0,52.0,30.27,WSW,250,7.0,20.0,44,0.00,,,0.00,894.000000,,2013-05-08 15:42:00,
2013-05-08 11:53:00,75.0,52.0,30.27,WSW,250,7.0,20.0,44,0.00,,,0.00,894.000000,,2013-05-08 15:53:00,
2013-05-08 12:03:00,75.0,52.0,30.27,WSW,250,7.0,20.0,44,0.00,,,0.00,894.000000,,2013-05-08 16:03:00,
2013-05-08 12:12:00,75.0,52.0,30.27,WSW,250,7.0,20.0,44,0.00,,,0.00,894.000000,,2013-05-08 16:12:00,
2013-05-08 12:42:00,75.0,50.0,30.26,SW,231,8.0,19.0,41,0.00,,,0.00,997.000000,,2013-05-08 16:42:00,
2013-05-08 12:52:00,75.0,50.0,30.26,SW,231,8.0,19.0,41,0.00,,,0.00,997.000000,,2013-05-08 16:52:00,
2013-05-08 13:02:00,75.0,50.0,30.26,SW,231,8.0,19.0,41,0.00,,,0.00,997.000000,,2013-05-08 17:02:00,
2013-05-08 13:12:00,75.0,50.0,30.26,SW,231,8.0,19.0,41,0.00,,,0.00,997.000000,,2013-05-08 17:12:00,
2013-05-08 13:52:00,76.0,48.0,30.24,SW,234,9.0,19.0,37,0.00,,,-99.99,1057.000000,,2013-05-08 17:52:00,
2013-05-08 14:02:00,76.0,48.0,30.24,SW,234,9.0,19.0,37,0.00,,,-99.99,1057.000000,,2013-05-08 18:02:00,
2013-05-08 14:12:00,76.0,48.0,30.24,SW,234,9.0,19.0,37,0.00,,,-99.99,1057.000000,,2013-05-08 18:12:00,
2013-05-08 14:42:00,78.0,48.0,30.23,WSW,253,8.0,16.0,35,0.00,,,0.00,1076.000000,,2013-05-08 18:42:00,
2013-05-08 14:52:00,78.0,48.0,30.23,WSW,253,8.0,16.0,35,0.00,,,0.00,1076.000000,,2013-05-08 18:52:00,
2013-05-08 15:01:00,78.0,48.0,30.23,WSW,253,8.0,16.0,35,0.00,,,0.00,1076.000000,,2013-05-08 19:01:00,
2013-05-08 15:11:00,78.0,48.0,30.23,WSW,253,8.0,16.0,35,0.00,,,0.00,1076.000000,,2013-05-08 19:11:00,
2013-05-08 15:42:00,78.0,50.0,30.22,SW,217,6.0,18.0,38,0.00,,,0.00,846.000000,,2013-05-08 19:42:00,
2013-05-08 15:52:00,78.0,50.0,30.22,SW,217,6.0,18.0,38,0.00,,,0.00,846.000000,,2013-05-08 19:52:00,
2013-05-08 16:02:00,78.0,50.0,30.22,SW,217,6.0,18.0,38,0.00,,,0.00,846.000000,,2013-05-08 20:02:00,
2013-05-08 16:11:00,78.0,50.0,30.22,SW,217,6.0,18.0,38,0.00,,,0.00,846.000000,,2013-05-08 20:11:00,
2013-05-08 16:42:00,74.0,54.0,30.21,South,187,8.0,21.0,49,0.00,,,0.00,788.000000,,2013-05-08 20:42:00,
2013-05-08 16:52:00,74.0,54.0,30.21,South,187,8.0,21.0,49,0.00,,,0.00,788.000000,,2013-05-08 20:52:00,
2013-05-08 17:02:00,74.0,54.0,30.21,South,187,8.0,21.0,49,0.00,,,0.00,788.000000,,2013-05-08 21:02:00,
2013-05-08 17:12:00,74.0,54.0,30.21,South,187,8.0,21.0,49,0.00,,,0.00,788.000000,,2013-05-08 21:12:00,
2013-05-08 17:43:00,74.0,57.0,30.20,South,172,10.0,20.0,56,0.00,,,0.00,404.000000,,2013-05-08 21:43:00,
2013-05-08 17:53:00,74.0,57.0,30.20,South,172,10.0,20.0,56,0.00,,,0.00,404.000000,,2013-05-08 21:53:00,
2013-05-08 18:03:00,74.0,57.0,30.20,South,172,10.0,20.0,56,0.00,,,0.00,404.000000,,2013-05-08 22:03:00,
2013-05-08 18:12:00,74.0,57.0,30.20,South,172,10.0,20.0,56,0.00,,,0.00,404.000000,,2013-05-08 22:12:00,
2013-05-08 18:33:00,76.0,59.0,30.20,SSW,192,9.0,19.0,55,0.00,,,0.00,376.000000,,2013-05-08 22:33:00,
2013-05-08 18:42:00,76.0,59.0,30.20,SSW,192,9.0,19.0,55,0.00,,,0.00,376.000000,,2013-05-08 22:42:00,
2013-05-08 18:53:00,76.0,59.0,30.20,SSW,192,9.0,19.0,55,0.00,,,0.00,376.000000,,2013-05-08 22:53:00,
2013-05-08 19:02:00,76.0,59.0,30.20,SSW,192,9.0,19.0,55,0.00,,,0.00,376.000000,,2013-05-08 23:02:00,
2013-05-08 19:12:00,76.0,59.0,30.20,SSW,192,9.0,19.0,55,0.00,,,0.00,376.000000,,2013-05-08 23:12:00,
2013-05-08 19:33:00,72.0,56.0,30.22,SSW,212,8.0,18.0,57,0.00,,,0.00,274.000000,,2013-05-08 23:33:00,
2013-05-08 19:42:00,72.0,56.0,30.22,SSW,212,8.0,18.0,57,0.00,,,0.00,274.000000,,2013-05-08 23:42:00,
2013-05-08 19:53:00,72.0,56.0,30.22,SSW,212,8.0,18.0,57,0.00,,,0.00,274.000000,,2013-05-08 23:53:00,
2013-05-08 20:02:00,72.0,56.0,30.22,SSW,212,8.0,18.0,57,0.00,,,0.00,274.000000,,2013-05-09 00:02:00,
2013-05-08 20:12:00,72.0,56.0,30.22,SSW,212,8.0,18.0,57,0.00,,,0.00,274.000000,,2013-05-09 00:12:00,
2013-05-08 20:42:00,68.0,57.0,30.22,SSW,211,5.0,17.0,68,0.00,,,0.00,68.000000,,2013-05-09 00:42:00,
2013-05-08 20:52:00,68.0,57.0,30.22,SSW,211,5.0,17.0,68,0.00,,,0.00,68.000000,,2013-05-09 00:52:00,
2013-05-08 21:01:00,68.0,57.0,30.22,SSW,211,5.0,17.0,68,0.00,,,0.00,68.000000,,2013-05-09 01:01:00,
2013-05-08 21:12:00,68.0,57.0,30.22,SSW,211,5.0,17.0,68,0.00,,,0.00,68.000000,,2013-05-09 01:12:00,
2013-05-08 21:32:00,64.0,56.0,30.24,SSW,207,4.0,10.0,74,0.00,,,0.00,0.000000,,2013-05-09 01:32:00,
2013-05-08 21:42:00,64.0,56.0,30.24,SSW,207,4.0,10.0,74,0.00,,,0.00,0.000000,,2013-05-09 01:42:00,
2013-05-08 21:53:00,64.0,56.0,30.24,SSW,207,4.0,10.0,74,0.00,,,0.00,0.000000,,2013-05-09 01:53:00,
2013-05-08 22:02:00,64.0,56.0,30.24,SSW,207,4.0,10.0,74,0.00,,,0.00,0.000000,,2013-05-09 02:02:00,
2013-05-08 22:12:00,64.0,56.0,30.24,SSW,207,4.0,10.0,74,0.00,,,0.00,0.000000,,2013-05-09 02:12:00,
2013-05-08 22:33:00,65.0,58.0,30.26,SW,217,5.0,13.0,77,0.00,,,0.00,0.000000,,2013-05-09 02:33:00,
2013-05-08 22:42:00,65.0,58.0,30.26,SW,217,5.0,13.0,77,0.00,,,0.00,0.000000,,2013-05-09 02:42:00,
2013-05-08 22:52:00,65.0,58.0,30.26,SW,217,5.0,13.0,77,0.00,,,0.00,0.000000,,2013-05-09 02:52:00,
2013-05-08 23:02:00,65.0,58.0,30.26,SW,217,5.0,13.0,77,0.00,,,0.00,0.000000,,2013-05-09 03:02:00,
2013-05-08 23:11:00,65.0,58.0,30.26,SW,217,5.0,13.0,77,0.00,,,0.00,0.000000,,2013-05-09 03:11:00,
2013-05-08 23:43:00,63.0,56.0,30.26,SW,220,6.0,11.0,79,0.00,,,0.00,0.000000,,2013-05-09 03:43:00,
2013-05-08 23:53:00,63.0,56.0,30.26,SW,220,6.0,11.0,79,0.00,,,0.00,0.000000,,2013-05-09 03:53:00,